Princeton, MN

7:04 PM CST on December 05, 2019 (GMT -0600)
Princeton Municipal

Weather History for KPNM - November, 2019

Change the Weather History Date:

Sunday, November 17, 2019

  Actual Average Record
Temperature  
Mean Temperature 34 °F -  
Max Temperature 37 °F 37 °F 69 °F (2001)
Min Temperature 30 °F 21 °F 0 °F (1997)
Degree Days  
Heating Degree Days 32    
Moisture  
Dew Point 31 °F    
Average Humidity 85    
Maximum Humidity 93    
Minimum Humidity 75    
Precipitation  
Precipitation 0.00 in - - ()
Sea Level Pressure  
Sea Level Pressure 29.88 in    
Wind  
Wind Speed 6 mph (West)    
Max Wind Speed 13 mph    
Max Gust Speed 17 mph    
Visibility 8 miles    
Events Rain    
Averages and records for this station are not official NWS values.
T = Trace of Precipitation, MM = Missing Value Source: NWS Daily Summary

Daily Weather History Graph

Daily Weather History Graph

Search for Another Location

Airport or City:

Astronomy

Nov. 17, 2019 Rise Set
Actual Time 7:16 AM CST 4:42 PM CST
Civil Twilight 6:43 AM CST 5:14 PM CST
Nautical Twilight 6:07 AM CST 5:50 PM CST
Astronomical Twilight 5:32 AM CST 6:25 PM CST
Moon 9:15 PM CST (11/17) 12:06 PM CST (11/17)
Length of Visible Light 10h 30m
Length of Day
9h 26m
Waning Gibbous, 73% of the Moon is Illuminated
Nov 17
Waning Gibbous
Nov 19
Last Quarter
Nov 26
New
Dec 4
First Quarter
Dec 11
Full

Hourly Weather History & Observations

Time (CST) Temp. Windchill Dew Point Humidity Pressure Visibility Wind Dir Wind Speed Gust Speed Precip Events Conditions
12:15 AM 37.4 °F 33.8 °F 35.6 °F 93% 29.94 in 4.0 mi SSE 4.6 mph - N/A   Drizzle
12:16 AM 37.4 °F 33.8 °F 35.6 °F 93% 29.94 in 4.0 mi SSE 4.6 mph - N/A   Drizzle
12:35 AM 37.4 °F 32.8 °F 35.6 °F 93% 29.93 in 3.0 mi SSE 5.8 mph - N/A   Drizzle
12:55 AM 37.4 °F 34.9 °F 35.6 °F 93% 29.93 in 3.0 mi South 3.5 mph - N/A   Drizzle
1:15 AM 37.4 °F 34.9 °F 35.6 °F 93% 29.92 in 2.5 mi SSE 3.5 mph - N/A Rain Rain
1:35 AM 37.4 °F 33.8 °F 35.6 °F 93% 29.91 in 2.5 mi SSE 4.6 mph - N/A Rain Light Rain
1:36 AM 37.4 °F 32.8 °F 35.6 °F 93% 29.91 in 2.5 mi SSE 5.8 mph - N/A Rain Light Rain
1:55 AM 37.4 °F 34.9 °F 35.6 °F 93% 29.91 in 2.5 mi South 3.5 mph - N/A Rain Rain
1:56 AM 37.4 °F 34.9 °F 35.6 °F 93% 29.91 in 2.5 mi South 3.5 mph - N/A Rain Rain
2:15 AM 37.4 °F 33.8 °F 35.6 °F 93% 29.91 in 3.0 mi South 4.6 mph - N/A   Light Drizzle
2:35 AM 37.4 °F 32.8 °F 35.6 °F 93% 29.90 in 3.0 mi South 5.8 mph - N/A   Scattered Clouds
2:55 AM 37.4 °F 33.8 °F 35.6 °F 93% 29.90 in 2.5 mi South 4.6 mph - N/A   Mostly Cloudy
2:56 AM 37.4 °F 33.8 °F 35.6 °F 93% 29.90 in 2.5 mi South 4.6 mph - N/A   Mostly Cloudy
3:15 AM 37.4 °F 34.9 °F 35.6 °F 93% 29.89 in 2.5 mi South 3.5 mph - N/A   Mostly Cloudy
3:35 AM 37.4 °F 34.9 °F 35.6 °F 93% 29.89 in 2.5 mi SSW 3.5 mph - N/A   Mostly Cloudy
3:55 AM 37.4 °F 33.8 °F 35.6 °F 93% 29.89 in 1.8 mi SSW 4.6 mph - N/A   Overcast
4:15 AM 37.4 °F 34.9 °F 35.6 °F 93% 29.88 in 2.5 mi SSW 3.5 mph - N/A   Overcast
4:35 AM 37.4 °F - 35.6 °F 93% 29.88 in 2.5 mi Calm Calm - N/A   Overcast
4:55 AM 37.4 °F - 35.6 °F 93% 29.88 in 2.5 mi Calm Calm - N/A   Overcast
4:56 AM 37.4 °F 34.9 °F 35.6 °F 93% 29.88 in 2.5 mi SW 3.5 mph - N/A   Overcast
5:15 AM 37.4 °F - 35.6 °F 93% 29.88 in 2.5 mi Calm Calm - N/A   Overcast
5:35 AM 37.4 °F - 35.6 °F 93% 29.88 in 3.0 mi Calm Calm - N/A   Overcast
5:55 AM 37.4 °F - 35.6 °F 93% 29.87 in 4.0 mi Calm Calm - N/A   Overcast
6:15 AM 37.4 °F 34.9 °F 35.6 °F 93% 29.88 in 4.0 mi WSW 3.5 mph - N/A   Overcast
6:35 AM 37.4 °F 32.1 °F 35.6 °F 93% 29.88 in 5.0 mi West 6.9 mph - N/A   Overcast
6:55 AM 37.4 °F 32.1 °F 35.6 °F 93% 29.88 in 7.0 mi West 6.9 mph - N/A   Overcast
6:56 AM 37.4 °F 32.1 °F 35.6 °F 93% 29.88 in 7.0 mi West 6.9 mph - N/A   Overcast
7:15 AM 37.4 °F 32.8 °F 35.6 °F 93% 29.88 in 7.0 mi West 5.8 mph - N/A   Overcast
7:35 AM 37.4 °F 32.1 °F 35.6 °F 93% 29.88 in 10.0 mi West 6.9 mph - N/A   Overcast
7:36 AM 37.4 °F 32.1 °F 35.6 °F 93% 29.88 in 10.0 mi West 6.9 mph - N/A   Overcast
7:55 AM 37.4 °F 32.1 °F 33.8 °F 87% 29.89 in 10.0 mi West 6.9 mph - N/A   Overcast
8:15 AM 37.4 °F 32.1 °F 33.8 °F 87% 29.89 in 10.0 mi West 6.9 mph - N/A   Overcast
8:16 AM 37.4 °F 32.1 °F 33.8 °F 87% 29.89 in 10.0 mi West 6.9 mph - N/A   Overcast
8:35 AM 37.4 °F 32.1 °F 33.8 °F 87% 29.89 in 10.0 mi West 6.9 mph - N/A   Overcast
8:36 AM 37.4 °F 32.1 °F 33.8 °F 87% 29.89 in 10.0 mi West 6.9 mph - N/A   Overcast
8:55 AM 37.4 °F 31.4 °F 33.8 °F 87% 29.90 in 10.0 mi West 8.1 mph - N/A   Overcast
9:15 AM 37.4 °F 30.8 °F 33.8 °F 87% 29.90 in 10.0 mi WNW 9.2 mph - N/A   Overcast
9:16 AM 37.4 °F 30.8 °F 33.8 °F 87% 29.90 in 10.0 mi West 9.2 mph - N/A   Overcast
9:35 AM 37.4 °F 30.8 °F 33.8 °F 87% 29.89 in 10.0 mi West 9.2 mph - N/A   Overcast
9:36 AM 37.4 °F 30.8 °F 33.8 °F 87% 29.89 in 10.0 mi WNW 9.2 mph - N/A   Overcast
9:55 AM 37.4 °F 30.8 °F 33.8 °F 87% 29.89 in 10.0 mi West 9.2 mph - N/A   Overcast
10:15 AM 37.4 °F 32.1 °F 33.8 °F 87% 29.90 in 10.0 mi WNW 6.9 mph - N/A   Overcast
10:16 AM 37.4 °F 32.1 °F 33.8 °F 87% 29.90 in 10.0 mi WNW 6.9 mph - N/A   Overcast
10:35 AM 37.4 °F 30.3 °F 33.8 °F 87% 29.89 in 10.0 mi West 10.4 mph - N/A   Overcast
10:36 AM 37.4 °F 30.8 °F 33.8 °F 87% 29.89 in 10.0 mi West 9.2 mph - N/A   Overcast
10:55 AM 37.4 °F 29.8 °F 33.8 °F 87% 29.90 in 10.0 mi WNW 11.5 mph 16.1 mph N/A   Overcast
11:15 AM 37.4 °F 30.3 °F 33.8 °F 87% 29.89 in 10.0 mi WNW 10.4 mph - N/A   Overcast
11:36 AM 37.4 °F 30.8 °F 32.0 °F 81% 29.89 in 10.0 mi West 9.2 mph - N/A   Overcast
11:55 AM 37.4 °F 29.3 °F 30.2 °F 75% 29.89 in 10.0 mi WNW 12.7 mph 17.3 mph N/A   Overcast
12:15 PM 35.6 °F 27.5 °F 30.2 °F 81% 29.88 in 10.0 mi WNW 11.5 mph - N/A   Overcast
12:16 PM 35.6 °F 28.0 °F 30.2 °F 81% 29.89 in 10.0 mi WNW 10.4 mph - N/A   Overcast
12:35 PM 35.6 °F 29.2 °F 30.2 °F 81% 29.88 in 10.0 mi WNW 8.1 mph - N/A   Overcast
12:36 PM 35.6 °F 29.2 °F 30.2 °F 81% 29.88 in 10.0 mi WNW 8.1 mph - N/A   Overcast
12:55 PM 35.6 °F 29.2 °F 30.2 °F 81% 29.88 in 10.0 mi WNW 8.1 mph - N/A   Overcast
12:56 PM 35.6 °F 29.2 °F 30.2 °F 81% 29.88 in 10.0 mi WNW 8.1 mph - N/A   Overcast
1:15 PM 35.6 °F 27.1 °F 28.4 °F 75% 29.88 in 10.0 mi West 12.7 mph - N/A   Overcast
1:16 PM 35.6 °F 27.5 °F 28.4 °F 75% 29.88 in 10.0 mi West 11.5 mph - N/A   Overcast
1:35 PM 33.8 °F 25.3 °F 28.4 °F 81% 29.88 in 10.0 mi West 11.5 mph - N/A   Overcast
1:36 PM 33.8 °F 25.3 °F 28.4 °F 81% 29.88 in 10.0 mi WNW 11.5 mph - N/A   Overcast
1:55 PM 33.8 °F 26.4 °F 28.4 °F 81% 29.88 in 10.0 mi WNW 9.2 mph - N/A   Overcast
2:15 PM 33.8 °F 25.8 °F 28.4 °F 81% 29.88 in 10.0 mi West 10.4 mph - N/A   Overcast
2:16 PM 33.8 °F 25.8 °F 28.4 °F 81% 29.88 in 10.0 mi West 10.4 mph - N/A   Overcast
2:35 PM 33.8 °F 25.8 °F 26.6 °F 75% 29.88 in 10.0 mi West 10.4 mph - N/A   Overcast
2:55 PM 33.8 °F 25.3 °F 26.6 °F 75% 29.88 in 10.0 mi West 11.5 mph 17.3 mph N/A   Overcast
3:15 PM 33.8 °F 26.4 °F 26.6 °F 75% 29.88 in 10.0 mi West 9.2 mph - N/A   Overcast
3:16 PM 33.8 °F 25.8 °F 26.6 °F 75% 29.88 in 10.0 mi West 10.4 mph - N/A   Overcast
3:35 PM 33.8 °F 27.7 °F 26.6 °F 75% 29.88 in 10.0 mi WNW 6.9 mph - N/A   Overcast
3:55 PM 33.8 °F 27.7 °F 26.6 °F 75% 29.89 in 10.0 mi West 6.9 mph - N/A   Overcast
3:56 PM 33.8 °F 27.0 °F 26.6 °F 75% 29.88 in 10.0 mi West 8.1 mph - N/A   Overcast
4:15 PM 33.8 °F 26.4 °F 26.6 °F 75% 29.89 in 10.0 mi WNW 9.2 mph 16.1 mph N/A   Overcast
4:16 PM 33.8 °F 27.0 °F 26.6 °F 75% 29.89 in 10.0 mi WNW 8.1 mph 16.1 mph N/A   Overcast
4:35 PM 33.8 °F 27.0 °F 26.6 °F 75% 29.89 in 10.0 mi WNW 8.1 mph - N/A   Overcast
4:55 PM 32.0 °F 25.6 °F 26.6 °F 80% 29.90 in 10.0 mi WNW 6.9 mph - N/A   Overcast
5:15 PM 32.0 °F 23.6 °F 24.8 °F 75% 29.89 in 10.0 mi West 10.4 mph - N/A   Overcast
5:16 PM 32.0 °F 24.8 °F 24.8 °F 75% 29.89 in 10.0 mi West 8.1 mph - N/A   Overcast
5:35 PM 32.0 °F 24.2 °F 24.8 °F 75% 29.89 in 10.0 mi West 9.2 mph - N/A   Overcast
5:55 PM 32.0 °F 27.5 °F 26.6 °F 80% 29.88 in 10.0 mi WNW 4.6 mph - N/A   Overcast
6:15 PM 32.0 °F 26.4 °F 26.6 °F 80% 29.88 in 10.0 mi WNW 5.8 mph - N/A   Overcast
6:35 PM 32.0 °F 26.4 °F 26.6 °F 80% 29.87 in 10.0 mi West 5.8 mph - N/A   Overcast
6:55 PM 30.2 °F 25.4 °F 24.8 °F 80% 29.87 in 10.0 mi West 4.6 mph - N/A   Overcast
7:15 PM 30.2 °F 22.6 °F 24.8 °F 80% 29.87 in 10.0 mi West 8.1 mph - N/A   Overcast
7:16 PM 30.2 °F 24.3 °F 24.8 °F 80% 29.87 in 10.0 mi West 5.8 mph - N/A   Overcast
7:35 PM 30.2 °F 24.3 °F 26.6 °F 86% 29.87 in 10.0 mi West 5.8 mph - N/A   Overcast
7:55 PM 30.2 °F 25.4 °F 26.6 °F 86% 29.87 in 10.0 mi West 4.6 mph - N/A   Overcast
7:56 PM 30.2 °F 25.4 °F 26.6 °F 86% 29.87 in 10.0 mi West 4.6 mph - N/A   Overcast
8:15 PM 30.2 °F 24.3 °F 24.8 °F 80% 29.87 in 10.0 mi West 5.8 mph - N/A   Overcast
8:35 PM 30.2 °F 24.3 °F 24.8 °F 80% 29.87 in 10.0 mi West 5.8 mph - N/A   Overcast
8:55 PM 30.2 °F 24.3 °F 24.8 °F 80% 29.87 in 10.0 mi WNW 5.8 mph - N/A   Overcast
8:56 PM 30.2 °F 25.4 °F 24.8 °F 80% 29.87 in 10.0 mi WNW 4.6 mph - N/A   Overcast
9:15 PM 30.2 °F 25.4 °F 26.6 °F 86% 29.86 in 10.0 mi WNW 4.6 mph - N/A   Overcast
9:35 PM 30.2 °F 25.4 °F 26.6 °F 86% 29.86 in 10.0 mi West 4.6 mph - N/A   Overcast
9:55 PM 30.2 °F - 26.6 °F 86% 29.86 in 10.0 mi Calm Calm - N/A   Overcast
10:15 PM 30.2 °F - 26.6 °F 86% 29.85 in 10.0 mi Calm Calm - N/A   Overcast
10:36 PM 30.2 °F - 26.6 °F 86% 29.84 in 10.0 mi Calm Calm - N/A   Overcast
10:55 PM 30.2 °F - 26.6 °F 86% 29.84 in 10.0 mi Calm Calm - N/A   Overcast
11:15 PM 30.2 °F - 26.6 °F 86% 29.84 in 10.0 mi Calm Calm - N/A   Overcast
11:35 PM 30.2 °F 26.7 °F 26.6 °F 86% 29.84 in 10.0 mi West 3.5 mph - N/A   Overcast